Hourly Data Report for March 16, 2020

All times are specified in Local Standard Time (LST). Add 1 hour to adjust for Daylight Saving Time where and when it is observed.

OTTAWA INTL A
ONTARIO
Current Station Operator: NAVCAN

45°19'00.000" N
75°40'00.000" W
114.90 m
6106001
71628
YOW

Download Data

Hourly Data (March 2020)
Hourly Data Report for March 16, 2020
TIME Temp Definition
°C
Dew Point Definition
°C
Rel Hum Definition
%
Wind Dir Definition
10's deg

Wind Spd Definition
km/h
Visibility Definition
km
Stn Press Definition
kPa
Hmdx Definition


Wind Chill Definition


Weather Definition


00:00 -6.3 -16.4 45 2 9 24.1 102.44   -11 LegendNANA
01:00 -7.7 -15.0 56 4 11 24.1 102.42   -13 Clear
02:00 -8.1 -14.9 58 4 14 24.1 102.41   -14 LegendNANA
03:00 -8.7 -15.4 59 4 14 24.1 102.38   -15 LegendNANA
04:00 -9.1 -16.6 55 6 12 24.1 102.39   -15 Mainly Clear
05:00 -9.4 -16.7 56 6 15 24.1 102.39   -16 LegendNANA
06:00 -9.9 -16.4 60 6 13 24.1 102.35   -16 LegendNANA
07:00 -9.7 -16.2 59 7 17 24.1 102.34   -17 Mostly Cloudy
08:00 -8.5 -15.3 58 8 16 24.1 102.34   -15 LegendNANA
09:00 -7.2 -14.2 58 7 16 24.1 102.30   -14 LegendNANA
10:00 -6.5 -13.9 56 7 14 24.1 102.25   -12 Mostly Cloudy
11:00 -5.2 -12.7 56 9 15 24.1 102.14   -11 LegendNANA
12:00 -3.8 -12.5 51 6 12 24.1 102.01   -8 LegendNANA
13:00 -3.0 -11.5 52 9 15 24.1 101.88   -8 Mostly Cloudy
14:00 -1.9 -10.1 54 7 16 24.1 101.68   -7 LegendNANA
15:00 -1.3 -9.7 53 8 15 24.1 101.56   -6 LegendNANA
16:00 -1.5 -10.1 52 7 18 24.1 101.44   -7 Mostly Cloudy
17:00 -1.4 -9.8 53 9 19 24.1 101.30   -7 LegendNANA
18:00 -2.0 -9.5 57 9 18 24.1 101.21   -7 LegendNANA
19:00 -2.2 -9.1 60 9 20 24.1 101.18   -8 Cloudy
20:00 -2.4 -8.9 61 8 18 24.1 101.10   -8 LegendNANA
21:00 -2.6 -9.3 60 8 16 24.1 100.98   -8 LegendNANA
22:00 -3.2 -9.2 63 9 16 24.1 100.84   -9 Mostly Cloudy
23:00 -3.6 -9.0 66 7 17 24.1 100.68   -9 LegendNANA

Notes on Data Quality.

Legend

  • E = Estimated
  • M = Missing
  • NA = Not Available*
  • [empty] = Indicates an unobserved value
Date modified: